Location: Izdebno
(52.6670°N, 16.2170°E)
Time: 06:35:04
(UTC+01:00)

Vanguard 2 - All Passes

Search period start: 30 January 2023 00:00
Search period end: 09 February 2023 00:00
Orbit: 554 x 2930 km, 32.9° (Epoch: 29 January)

Date Brightness Start Highest point End Pass type
(mag) Time Alt. Az. Time Alt. Az. Time Alt. Az.
30 Jan - 00:52:41 10° SW 01:07:42 37° S 01:21:28 10° ESE visible
30 Jan - 03:03:19 10° WSW 03:17:21 31° SSW 03:28:55 10° SSE visible
30 Jan - 05:17:41 10° WSW 05:25:22 15° SW 05:31:59 10° SSW visible
30 Jan - 20:56:44 10° S 21:05:29 18° SE 21:15:03 10° ESE visible
30 Jan - 23:00:42 10° SW 23:14:12 32° SSE 23:28:18 10° ESE night (unlit)
31 Jan - 01:09:06 10° WSW 01:24:07 37° S 01:37:55 10° SE visible
31 Jan - 03:20:13 10° WSW 03:33:34 28° SSW 03:44:45 10° SSE visible
31 Jan - 05:37:05 10° WSW 05:41:14 12° SW 05:45:06 10° SSW visible
31 Jan - 21:11:20 10° S 21:21:29 22° SE 21:32:54 10° ESE visible
31 Jan - 23:16:41 10° SW 23:30:32 35° SSE 23:45:04 10° ESE night (unlit)
01 Feb - 01:25:37 10° WSW 01:40:31 36° S 01:54:14 10° SE visible
01 Feb - 03:37:20 10° WSW 03:49:43 25° SSW 04:00:18 10° SSE visible
01 Feb - 21:26:31 10° SSW 21:37:34 25° SSE 21:50:15 10° ESE visible
01 Feb - 23:32:51 10° SW 23:46:54 36° S 00:01:42 10° ESE visible
02 Feb - 01:42:15 10° WSW 01:56:53 34° SSW 02:10:23 10° SE visible
02 Feb - 03:54:43 10° WSW 04:05:47 21° SW 04:15:27 10° S visible
02 Feb - 19:40:58 10° SSE 19:45:52 12° SE 19:51:15 10° ESE visible
02 Feb - 21:42:04 10° SSW 21:53:44 29° SSE 22:07:19 10° ESE visible
02 Feb - 23:49:09 10° SW 00:03:18 37° S 00:18:13 10° ESE visible
03 Feb - 01:59:01 10° WSW 02:13:11 32° SSW 02:26:21 10° SE visible
03 Feb - 04:12:38 10° WSW 04:21:45 17° SW 04:30:00 10° S visible
03 Feb - 19:54:27 10° S 20:01:44 16° SE 20:10:11 10° ESE visible
03 Feb - 21:57:55 10° SW 22:09:57 32° SSE 22:24:12 10° ESE visible
04 Feb - 00:05:35 10° WSW 00:19:42 37° S 00:34:36 10° SE visible
04 Feb - 02:15:56 10° WSW 02:29:25 29° SSW 02:42:04 10° SSE visible
04 Feb - 04:31:39 10° WSW 04:37:39 13° SW 04:43:17 10° SSW visible
04 Feb - 20:09:09 10° S 20:17:42 20° SE 20:28:02 10° ESE visible
04 Feb - 22:13:56 10° SW 22:26:15 34° SSE 22:40:54 10° ESE visible
05 Feb - 00:22:07 10° WSW 00:36:05 36° S 00:50:50 10° SE visible
05 Feb - 02:33:02 10° WSW 02:45:36 25° SSW 02:57:29 10° SSE visible
05 Feb - 20:24:25 10° SSW 20:33:44 24° SSE 20:45:21 10° ESE visible
05 Feb - 22:30:09 10° SW 22:42:35 35° S 22:57:30 10° ESE visible
06 Feb - 00:38:46 10° WSW 00:52:27 34° SSW 01:06:54 10° SE visible
06 Feb - 02:50:27 10° WSW 03:01:42 21° SW 03:12:27 10° S visible
06 Feb - 18:40:54 10° SE 18:42:35 10° SE 18:44:21 10° SE visible
06 Feb - 20:40:03 10° SSW 20:49:51 27° SSE 21:02:24 10° ESE visible
06 Feb - 22:46:29 10° SW 22:58:57 36° S 23:13:57 10° ESE visible
07 Feb - 00:55:33 10° WSW 01:08:47 31° SSW 01:22:45 10° SE visible
07 Feb - 03:08:25 10° WSW 03:17:43 17° SW 03:26:44 10° S visible
07 Feb - 18:53:15 10° SSE 18:58:27 14° SE 19:04:32 10° ESE visible
07 Feb - 20:55:56 10° SSW 21:06:03 30° SSE 21:19:14 10° ESE visible
07 Feb - 23:02:56 10° WSW 23:15:21 35° S 23:30:16 10° SE visible
08 Feb - 01:12:29 10° WSW 01:25:03 28° SSW 01:38:20 10° SSE visible
08 Feb - 03:27:35 10° WSW 03:33:41 13° SW 03:39:40 10° SSW visible
08 Feb - 19:07:50 10° S 19:14:23 17° SE 19:22:32 10° ESE visible
08 Feb - 21:12:01 10° SW 21:22:19 32° SSE 21:35:55 10° ESE visible
08 Feb - 23:19:29 10° WSW 23:31:45 34° S 23:46:26 10° SE visible
